SHIYAN-29

Last updated on Fri Jul 10 2026 00:03:07 GMT+0000 (Coordinated Universal Time)

1 65486U 25196A 26189.87644994 -.00000274 00000+0 00000+0 0 9991 2 65486 28.8440 18.2619 0013551 176.8148 142.4919 1.00278544 3097
UTC large
Height (km)
Speed (km/s)
/
Latitude / Longitude
Inclination (degrees)
Orbital Period (minutes)
Azimuth
Elevation
Range (km)
Doppler Factor

Next 0 passes for location: London (51.5072 / 0.1276)

No passes found over London.
SHIYAN-29